Home   Weather   Norway   Volda   Past weeks
Flag for Norway

Past Weather in Volda, Norway — Yesterday and Last 2 Weeks

Currently: 37 °F. Overcast. (Weather station: Alesund / Vigra, Norway). See more current weather

Past Weather in Volda — Graph

°F

Volda Temperature Yesterday

Maximum temperature yesterday: 41 °F (at 2:50 pm)
Minimum temperature yesterday: 32 °F (at 12:20 am)
Average temperature yesterday: 37 °F

High & Low Weather Summary for the Past Weeks

 TemperatureHumidityPressure
High50 °F (Nov 24, 6:50 am)100% (Nov 23, 11:20 am)30.09 "Hg (Nov 23, 11:20 am)
Low19 °F (Dec 3, 4:20 am)52% (Dec 2, 2:50 pm)29.12 "Hg (Nov 29, 9:50 pm)
Average35 °F81%29.59 "Hg
* Reported Nov 20 12:20 am — Dec 5 12:50 am, Volda. Weather by CustomWeather, © 2021

Note: Actual official high and low records may vary slightly from our data, if they occured in-between our weather recording intervals... More about our weather records

Volda Weather History for the Previous 24 Hours

Scroll right to see more
 ConditionsComfort  
Time TempWeatherWind HumidityBarometerVisibility
12:50 am
Sun, Dec 5
37 °FOvercast.12 mph56%29.71 "HgN/A
12:20 am37 °FOvercast.10 mph60%29.71 "HgN/A
11:50 pm
Sat, Dec 4
37 °FOvercast.13 mph60%29.71 "HgN/A
11:20 pm37 °FMostly cloudy.13 mph60%29.68 "HgN/A
10:50 pm37 °FPartly cloudy.13 mph65%29.68 "HgN/A
10:20 pm37 °FSnow flurries. Partly cloudy.14 mph70%29.65 "HgN/A
9:50 pm37 °FPartly cloudy.16 mph60%29.65 "HgN/A
9:20 pm37 °FPassing clouds.15 mph65%29.62 "HgN/A
8:50 pm39 °FPassing clouds.16 mph61%29.62 "HgN/A
8:20 pm37 °FPassing clouds.14 mph60%29.59 "HgN/A
7:50 pm39 °FPassing clouds.12 mph56%29.59 "HgN/A
7:20 pm39 °FPassing clouds.14 mph61%29.56 "HgN/A
6:50 pm37 °FPassing clouds.9 mph70%29.53 "HgN/A
6:20 pm37 °FLight rain. Passing clouds.8 mph75%29.53 "HgN/A
5:50 pm39 °FSnow flurries. Passing clouds.12 mph61%29.50 "HgN/A
5:20 pm39 °FPartly cloudy.14 mph61%29.50 "HgN/A
4:50 pm39 °FPassing clouds.15 mph61%29.47 "HgN/A
4:20 pm39 °FPassing clouds.17 mph65%29.45 "HgN/A
3:50 pm39 °FPassing clouds.18 mph65%29.45 "HgN/A
3:20 pm41 °FPartly cloudy.17 mph61%29.42 "HgN/A
2:50 pm41 °FBroken clouds.20 mph61%29.39 "HgN/A
2:20 pm39 °FPartly sunny.20 mph65%29.39 "HgN/A
1:50 pm39 °FBroken clouds.18 mph70%29.39 "HgN/A
1:20 pm39 °FPartly sunny.20 mph65%29.36 "HgN/A
12:50 pm39 °FBroken clouds.22 mph61%29.33 "HgN/A
12:20 pm39 °FScattered clouds.21 mph56%29.33 "HgN/A
11:50 am37 °FSunny.21 mph60%29.33 "Hg10 mi
11:20 am37 °FPassing clouds.24 mph60%29.30 "HgN/A
10:50 am37 °FSunny.22 mph60%29.30 "Hg10 mi
10:20 am36 °FSunny.23 mph65%29.30 "Hg10 mi
9:50 am37 °FSunny.24 mph60%29.27 "Hg10 mi
9:20 am37 °FClear.21 mph60%29.27 "Hg10 mi
8:50 am37 °FPassing clouds.21 mph60%29.27 "HgN/A
8:20 am37 °FPassing clouds.21 mph65%29.24 "HgN/A
7:50 am37 °FClear.21 mph65%29.24 "Hg10 mi
7:20 am37 °FPassing clouds.21 mph65%29.21 "HgN/A
6:50 am37 °FPassing clouds.22 mph65%29.21 "HgN/A
6:20 am37 °FPassing clouds.18 mph65%29.21 "HgN/A
5:50 am36 °FPassing clouds.18 mph75%29.21 "HgN/A
5:20 am34 °FLight snow. Fog.20 mph81%29.21 "HgN/A
4:50 am32 °FLight snow. Fog.18 mph93%29.21 "Hg2 mi
4:20 am32 °FLight snow. Light fog.15 mph93%29.21 "Hg6 mi
3:50 am32 °FLight snow. Dense fog.15 mph100%29.21 "Hg1 mi
3:20 am32 °FLight snow. Dense fog.18 mph87%29.21 "Hg1 mi
2:50 am34 °FLight snow. Mostly cloudy.18 mph70%29.21 "HgN/A
2:20 am34 °FOvercast.17 mph65%29.21 "HgN/A
Weather by CustomWeather, © 2021

See weather overview